When you browse on this site, cookies collect data to enhance your experience and personalize the content and advertising you see.
Visit our Privacy Policy to learn more. By continuing to use the site, you agree to this use of cookies and data.
  • In Deutschland
  • Länderverzeichnis
  • Für 7 Tage
  • Wassertemperatur
  • Wetterkarte
  • Widgets
  • user-avatar
    Anmelden

    Stündliche Wetter Kitzbühel

    Heute, 23 November, Samstag

    Zeit Temperatur Niederschläge Wind Luftdruck Luftfeuchtigkeit
    00:00 +1°C° 0 mm 4 m/S 669 mmHg 81%
    01:00 +1°C° 0 mm 4 m/S 669 mmHg 81%
    02:00 +1°C° 0 mm 4 m/S 669 mmHg 80%
    03:00 +1°C° 0 mm 4 m/S 668 mmHg 79%
    04:00 +1°C° 0 mm 4 m/S 668 mmHg 78%
    05:00 +1°C° 0 mm 4 m/S 668 mmHg 78%
    06:00 +1°C° 0 mm 4 m/S 668 mmHg 78%
    07:00 +1°C° 0 mm 4 m/S 668 mmHg 78%
    08:00 +3°C° 0 mm 4 m/S 668 mmHg 75%
    09:00 +4°C° 0 mm 4 m/S 668 mmHg 72%
    10:00 +6°C° 0 mm 4 m/S 668 mmHg 69%
    11:00 +7°C° 0 mm 4 m/S 668 mmHg 69%
    12:00 +8°C° 0 mm 4 m/S 668 mmHg 68%
    13:00 +8°C° 0 mm 4 m/S 668 mmHg 68%
    14:00 +8°C° 0 mm 4 m/S 667 mmHg 71%
    15:00 +7°C° 0 mm 4 m/S 667 mmHg 75%
    16:00 +6°C° 0 mm 4 m/S 667 mmHg 78%
    17:00 +5°C° 0 mm 4 m/S 667 mmHg 79%
    18:00 +5°C° 0 mm 4 m/S 667 mmHg 80%
    19:00 +4°C° 0 mm 4 m/S 667 mmHg 81%
    20:00 +4°C° 0 mm 4 m/S 667 mmHg 81%
    21:00 +4°C° 0 mm 4 m/S 668 mmHg 80%
    22:00 +4°C° 0 mm 4 m/S 668 mmHg 80%
    23:00 +4°C° 0 mm 4 m/S 668 mmHg 81%

    Morgen, 24 November, Sonntag

    Zeit Temperatur Niederschläge Wind Luftdruck Luftfeuchtigkeit
    00:00 +4°C° 0 mm 4 m/S 668 mmHg 81%
    01:00 +4°C° 0 mm 4 m/S 668 mmHg 81%
    02:00 +4°C° 0 mm 4 m/S 668 mmHg 82%
    03:00 +4°C° 0 mm 4 m/S 668 mmHg 82%
    04:00 +4°C° 0 mm 3 m/S 668 mmHg 82%
    05:00 +4°C° 0 mm 3 m/S 668 mmHg 83%
    06:00 +4°C° 0 mm 3 m/S 669 mmHg 83%
    07:00 +4°C° 0 mm 3 m/S 669 mmHg 83%
    08:00 +5°C° 0 mm 3 m/S 669 mmHg 81%
    09:00 +7°C° 0 mm 3 m/S 670 mmHg 79%
    10:00 +8°C° 0 mm 3 m/S 670 mmHg 77%
    11:00 +9°C° 0 mm 2 m/S 670 mmHg 75%
    12:00 +10°C° 0 mm 2 m/S 671 mmHg 73%
    13:00 +12°C° 0 mm 2 m/S 671 mmHg 72%
    14:00 +9°C° 0 mm 2 m/S 671 mmHg 76%
    15:00 +8°C° 0 mm 2 m/S 670 mmHg 81%
    16:00 +7°C° 0 mm 2 m/S 670 mmHg 85%
    17:00 +6°C° 0 mm 2 m/S 671 mmHg 85%
    18:00 +6°C° 0 mm 2 m/S 671 mmHg 86%
    19:00 +6°C° 0 mm 1 m/S 671 mmHg 86%
    20:00 +6°C° 0 mm 1 m/S 671 mmHg 85%
    21:00 +5°C° 0 mm 1 m/S 671 mmHg 84%
    22:00 +5°C° 0 mm 1 m/S 671 mmHg 84%
    23:00 +5°C° 0 mm 1 m/S 671 mmHg 83%

    übermorgen, 25 November, Montag

    Zeit Temperatur Niederschläge Wind Luftdruck Luftfeuchtigkeit
    00:00 +5°C° 0 mm 1 m/S 671 mmHg 82%
    01:00 +5°C° 0 mm 1 m/S 671 mmHg 82%
    02:00 +4°C° 0 mm 1 m/S 671 mmHg 82%
    03:00 +4°C° 0 mm 1 m/S 671 mmHg 82%
    04:00 +4°C° 0 mm 1 m/S 671 mmHg 82%
    05:00 +4°C° 0 mm 1 m/S 671 mmHg 82%
    06:00 +4°C° 0 mm 1 m/S 671 mmHg 82%
    07:00 +4°C° 0 mm 1 m/S 671 mmHg 82%
    08:00 +5°C° 0 mm 1 m/S 672 mmHg 79%
    09:00 +6°C° 0 mm 0 m/S 672 mmHg 76%
    10:00 +7°C° 0 mm 0 m/S 672 mmHg 73%
    11:00 +8°C° 0 mm 0 m/S 672 mmHg 72%
    12:00 +9°C° 0 mm 0 m/S 672 mmHg 71%
    13:00 +10°C° 0 mm 0 m/S 672 mmHg 70%
    14:00 +8°C° 0 mm 0 m/S 671 mmHg 76%
    15:00 +7°C° 0 mm 0 m/S 671 mmHg 82%
    16:00 +6°C° 0 mm 0 m/S 671 mmHg 89%
    17:00 +5°C° 0 mm 0 m/S 671 mmHg 88%
    18:00 +5°C° 0 mm 0 m/S 671 mmHg 87%
    19:00 +5°C° 0 mm 1 m/S 671 mmHg 87%
    20:00 +5°C° 0 mm 1 m/S 671 mmHg 86%
    21:00 +5°C° 0 mm 1 m/S 671 mmHg 85%
    22:00 +5°C° 0 mm 1 m/S 671 mmHg 84%
    23:00 +5°C° 0 mm 1 m/S 671 mmHg 84%

    26 November, Dienstag

    Zeit Temperatur Niederschläge Wind Luftdruck Luftfeuchtigkeit
    00:00 +5°C° 0 mm 1 m/S 671 mmHg 83%
    01:00 +4°C° 0 mm 0 m/S 671 mmHg 83%
    02:00 +3°C° 0 mm 0 m/S 671 mmHg 84%
    03:00 +3°C° 0 mm 0 m/S 671 mmHg 85%
    04:00 +4°C° 0 mm 1 m/S 671 mmHg 86%
    05:00 +3°C° 0 mm 0 m/S 671 mmHg 86%
    06:00 +4°C° 0 mm 0 m/S 671 mmHg 86%
    07:00 +4°C° 0 mm 0 m/S 672 mmHg 86%
    08:00 +4°C° 0.1 mm 0 m/S 672 mmHg 86%
    09:00 +5°C° 0.1 mm 0 m/S 672 mmHg 86%
    10:00 +5°C° 0.1 mm 0 m/S 672 mmHg 85%
    11:00 +6°C° 0.1 mm 0 m/S 672 mmHg 85%
    12:00 +6°C° 0.1 mm 0 m/S 672 mmHg 86%
    13:00 +7°C° 0.1 mm 1 m/S 672 mmHg 86%
    14:00 +6°C° 0 mm 0 m/S 671 mmHg 89%
    15:00 +5°C° 0 mm 0 m/S 671 mmHg 91%
    16:00 +5°C° 0 mm 0 m/S 671 mmHg 94%
    17:00 +5°C° 0 mm 1 m/S 671 mmHg 92%
    18:00 +5°C° 0 mm 1 m/S 671 mmHg 91%
    19:00 +3°C° 0 mm 2 m/S 671 mmHg 90%
    20:00 +3°C° 0 mm 2 m/S 670 mmHg 87%
    21:00 +3°C° 0 mm 2 m/S 670 mmHg 85%
    22:00 +3°C° 0 mm 2 m/S 670 mmHg 83%
    23:00 +3°C° 0 mm 2 m/S 670 mmHg 81%

    27 November, Mittwoch

    Zeit Temperatur Niederschläge Wind Luftdruck Luftfeuchtigkeit
    00:00 +4°C° 0 mm 2 m/S 669 mmHg 79%
    01:00 +3°C° 0 mm 3 m/S 669 mmHg 77%
    02:00 +3°C° 0 mm 3 m/S 668 mmHg 77%
    03:00 +3°C° 0 mm 3 m/S 668 mmHg 77%
    04:00 +3°C° 0 mm 3 m/S 668 mmHg 77%
    05:00 +3°C° 0 mm 3 m/S 667 mmHg 78%
    06:00 +4°C° 0 mm 2 m/S 667 mmHg 79%
    07:00 +4°C° 0 mm 2 m/S 667 mmHg 80%
    08:00 +5°C° 0 mm 2 m/S 667 mmHg 79%
    09:00 +5°C° 0 mm 2 m/S 667 mmHg 79%
    10:00 +7°C° 0 mm 1 m/S 668 mmHg 78%
    11:00 +8°C° 0 mm 1 m/S 667 mmHg 77%
    12:00 +8°C° 0 mm 1 m/S 667 mmHg 75%
    13:00 +9°C° 0 mm 1 m/S 667 mmHg 73%
    14:00 +8°C° 0.2 mm 1 m/S 667 mmHg 77%
    15:00 +8°C° 0.2 mm 1 m/S 667 mmHg 82%
    16:00 +7°C° 0.2 mm 1 m/S 667 mmHg 86%
    17:00 +7°C° 0.2 mm 1 m/S 667 mmHg 88%
    18:00 +6°C° 0.2 mm 1 m/S 667 mmHg 89%
    19:00 +6°C° 0.2 mm 1 m/S 667 mmHg 91%
    20:00 +6°C° 0.3 mm 1 m/S 667 mmHg 91%
    21:00 +5°C° 0.3 mm 1 m/S 668 mmHg 91%
    22:00 +5°C° 0.3 mm 1 m/S 668 mmHg 92%
    23:00 +5°C° 0.1 mm 1 m/S 668 mmHg 91%

    28 November, Donnerstag

    Zeit Temperatur Niederschläge Wind Luftdruck Luftfeuchtigkeit
    00:00 +5°C° 0.1 mm 1 m/S 668 mmHg 90%
    01:00 +5°C° 0.1 mm 1 m/S 668 mmHg 90%
    02:00 +4°C° 0.1 mm 1 m/S 668 mmHg 90%
    03:00 +4°C° 0.1 mm 1 m/S 668 mmHg 89%
    04:00 +4°C° 0.1 mm 1 m/S 668 mmHg 89%
    05:00 +4°C° 0 mm 1 m/S 668 mmHg 89%
    06:00 +4°C° 0 mm 1 m/S 668 mmHg 88%
    07:00 +4°C° 0 mm 1 m/S 668 mmHg 88%
    08:00 +5°C° 0 mm 1 m/S 668 mmHg 86%
    09:00 +6°C° 0 mm 1 m/S 669 mmHg 84%
    10:00 +7°C° 0 mm 1 m/S 669 mmHg 81%
    11:00 +7°C° 0 mm 1 m/S 669 mmHg 80%
    12:00 +8°C° 0 mm 1 m/S 669 mmHg 79%
    13:00 +8°C° 0 mm 1 m/S 669 mmHg 79%
    14:00 +7°C° 0.1 mm 1 m/S 669 mmHg 82%
    15:00 +7°C° 0.1 mm 1 m/S 669 mmHg 86%
    16:00 +5°C° 0.1 mm 0 m/S 670 mmHg 90%
    17:00 +6°C° 0.1 mm 1 m/S 670 mmHg 91%
    18:00 +5°C° 0.1 mm 1 m/S 670 mmHg 92%
    19:00 +5°C° 0.1 mm 1 m/S 671 mmHg 93%
    20:00 +5°C° 0.1 mm 1 m/S 671 mmHg 92%
    21:00 +5°C° 0.1 mm 1 m/S 672 mmHg 91%
    22:00 +4°C° 0.1 mm 1 m/S 672 mmHg 91%
    23:00 +4°C° 0 mm 1 m/S 672 mmHg 89%
    Mehr zeigen